Time,TemperatureF,DewpointF,PressureIn,WindDirection,WindDirectionDegrees,WindSpeedMPH,WindSpeedGustMPH,Humidity,HourlyPrecipIn,Conditions,Clouds,dailyrainin,SolarRadiationWatts/m^2,SoftwareType,DateUTC
2013-06-11 00:02:00,71.0,69.0,-100.00,SSW,196,2.0,5.0,95,0.00,,,0.52,0.000000,,2013-06-11 05:02:00,
2013-06-11 00:12:00,71.0,69.0,-100.00,SSW,196,2.0,5.0,95,0.00,,,0.52,0.000000,,2013-06-11 05:12:00,
2013-06-11 00:32:00,71.0,70.0,-100.00,South,189,3.0,5.0,96,0.00,,,0.52,0.000000,,2013-06-11 05:32:00,
2013-06-11 00:42:00,71.0,70.0,-100.00,South,189,3.0,5.0,96,0.00,,,0.52,0.000000,,2013-06-11 05:42:00,
2013-06-11 00:52:00,71.0,70.0,-100.00,South,189,3.0,5.0,96,0.00,,,0.52,0.000000,,2013-06-11 05:52:00,
2013-06-11 01:02:00,71.0,70.0,-100.00,South,189,3.0,5.0,96,0.00,,,0.52,0.000000,,2013-06-11 06:02:00,
2013-06-11 01:12:00,71.0,70.0,-100.00,South,189,3.0,5.0,96,0.00,,,0.52,0.000000,,2013-06-11 06:12:00,
2013-06-11 01:32:00,72.0,71.0,-100.00,SSW,193,2.0,5.0,96,0.00,,,0.52,0.000000,,2013-06-11 06:32:00,
2013-06-11 01:42:00,72.0,71.0,-100.00,SSW,193,2.0,5.0,96,0.00,,,0.52,0.000000,,2013-06-11 06:42:00,
2013-06-11 01:52:00,72.0,71.0,-100.00,SSW,193,2.0,5.0,96,0.00,,,0.52,0.000000,,2013-06-11 06:52:00,
2013-06-11 02:02:00,72.0,71.0,-100.00,SSW,193,2.0,5.0,96,0.00,,,0.52,0.000000,,2013-06-11 07:02:00,
2013-06-11 02:12:00,72.0,71.0,-100.00,SSW,193,2.0,5.0,96,0.00,,,0.52,0.000000,,2013-06-11 07:12:00,
2013-06-11 02:42:00,72.0,71.0,-100.00,South,189,2.0,4.0,96,0.00,,,0.52,0.000000,,2013-06-11 07:42:00,
2013-06-11 02:52:00,72.0,71.0,-100.00,South,189,2.0,4.0,96,0.00,,,0.52,0.000000,,2013-06-11 07:52:00,
2013-06-11 03:02:00,72.0,71.0,-100.00,South,189,2.0,4.0,96,0.00,,,0.52,0.000000,,2013-06-11 08:02:00,
2013-06-11 03:12:00,72.0,71.0,-100.00,South,189,2.0,4.0,96,0.00,,,0.52,0.000000,,2013-06-11 08:12:00,
2013-06-11 03:32:00,73.0,72.0,-100.00,SSW,192,2.0,5.0,97,0.00,,,0.52,0.000000,,2013-06-11 08:32:00,
2013-06-11 03:42:00,73.0,72.0,-100.00,SSW,192,2.0,5.0,97,0.00,,,0.52,0.000000,,2013-06-11 08:42:00,
2013-06-11 03:52:00,73.0,72.0,-100.00,SSW,192,2.0,5.0,97,0.00,,,0.52,0.000000,,2013-06-11 08:52:00,
2013-06-11 04:02:00,73.0,72.0,-100.00,SSW,192,2.0,5.0,97,0.00,,,0.52,0.000000,,2013-06-11 09:02:00,
2013-06-11 04:12:00,73.0,72.0,-100.00,SSW,192,2.0,5.0,97,0.00,,,0.52,0.000000,,2013-06-11 09:12:00,
2013-06-11 04:33:00,73.0,72.0,-100.00,SSW,194,2.0,5.0,97,0.00,,,0.51,0.000000,,2013-06-11 09:33:00,
2013-06-11 04:43:00,73.0,72.0,-100.00,SSW,194,2.0,5.0,97,0.00,,,0.51,0.000000,,2013-06-11 09:43:00,
2013-06-11 04:53:00,73.0,72.0,-100.00,SSW,194,2.0,5.0,97,0.00,,,0.51,0.000000,,2013-06-11 09:53:00,
2013-06-11 05:03:00,73.0,72.0,-100.00,SSW,194,2.0,5.0,97,0.00,,,0.51,0.000000,,2013-06-11 10:03:00,
2013-06-11 05:12:00,73.0,72.0,-100.00,SSW,194,2.0,5.0,97,0.00,,,0.51,0.000000,,2013-06-11 10:12:00,
2013-06-11 05:33:00,73.0,72.0,-100.00,SW,225,0.0,4.0,97,0.00,,,0.46,0.000000,,2013-06-11 10:33:00,
2013-06-11 05:43:00,73.0,72.0,-100.00,SW,225,0.0,4.0,97,0.00,,,0.46,0.000000,,2013-06-11 10:43:00,
2013-06-11 05:52:00,73.0,72.0,-100.00,SW,225,0.0,4.0,97,0.00,,,0.46,0.000000,,2013-06-11 10:52:00,
2013-06-11 06:02:00,73.0,72.0,-100.00,SW,225,0.0,4.0,97,0.00,,,0.46,0.000000,,2013-06-11 11:02:00,
2013-06-11 06:12:00,73.0,72.0,-100.00,SW,225,0.0,4.0,97,0.00,,,0.46,0.000000,,2013-06-11 11:12:00,
2013-06-11 06:32:00,73.0,72.0,-100.00,WNW,298,1.0,4.0,97,0.00,,,-99.99,7.000000,,2013-06-11 11:32:00,
2013-06-11 06:42:00,73.0,72.0,-100.00,WNW,298,1.0,4.0,97,0.00,,,-99.99,7.000000,,2013-06-11 11:42:00,
2013-06-11 06:52:00,73.0,72.0,-100.00,WNW,298,1.0,4.0,97,0.00,,,-99.99,7.000000,,2013-06-11 11:52:00,
2013-06-11 07:02:00,73.0,72.0,-100.00,WNW,298,1.0,4.0,97,0.00,,,-99.99,7.000000,,2013-06-11 12:02:00,
2013-06-11 07:12:00,73.0,72.0,-100.00,WNW,298,1.0,4.0,97,0.00,,,-99.99,7.000000,,2013-06-11 12:12:00,
2013-06-11 07:32:00,75.0,74.0,-100.00,SW,224,1.0,4.0,97,0.00,,,-99.99,69.000000,,2013-06-11 12:32:00,
2013-06-11 07:42:00,75.0,74.0,-100.00,SW,224,1.0,4.0,97,0.00,,,-99.99,69.000000,,2013-06-11 12:42:00,
2013-06-11 07:52:00,75.0,74.0,-100.00,SW,224,1.0,4.0,97,0.00,,,-99.99,69.000000,,2013-06-11 12:52:00,
2013-06-11 08:02:00,75.0,74.0,-100.00,SW,224,1.0,4.0,97,0.00,,,-99.99,69.000000,,2013-06-11 13:02:00,
2013-06-11 08:12:00,75.0,74.0,-100.00,SW,224,1.0,4.0,97,0.00,,,-99.99,69.000000,,2013-06-11 13:12:00,
2013-06-11 08:32:00,77.0,76.0,-100.00,WNW,299,3.0,7.0,97,0.00,,,0.24,158.000000,,2013-06-11 13:32:00,
2013-06-11 08:42:00,77.0,76.0,-100.00,WNW,299,3.0,7.0,97,0.00,,,0.24,158.000000,,2013-06-11 13:42:00,
2013-06-11 08:52:00,77.0,76.0,-100.00,WNW,299,3.0,7.0,97,0.00,,,0.24,158.000000,,2013-06-11 13:52:00,
2013-06-11 09:02:00,77.0,76.0,-100.00,WNW,299,3.0,7.0,97,0.00,,,0.24,158.000000,,2013-06-11 14:02:00,
2013-06-11 09:12:00,77.0,76.0,-100.00,WNW,299,3.0,7.0,97,0.00,,,0.24,158.000000,,2013-06-11 14:12:00,
2013-06-11 09:32:00,80.0,76.0,-100.00,NW,305,4.0,9.0,87,0.00,,,-99.99,245.000000,,2013-06-11 14:32:00,
2013-06-11 09:42:00,80.0,76.0,-100.00,NW,305,4.0,9.0,87,0.00,,,-99.99,245.000000,,2013-06-11 14:42:00,
2013-06-11 09:53:00,80.0,76.0,-100.00,NW,305,4.0,9.0,87,0.00,,,-99.99,245.000000,,2013-06-11 14:53:00,
2013-06-11 10:02:00,80.0,76.0,-100.00,NW,305,4.0,9.0,87,0.00,,,-99.99,245.000000,,2013-06-11 15:02:00,
2013-06-11 10:12:00,80.0,76.0,-100.00,NW,305,4.0,9.0,87,0.00,,,-99.99,245.000000,,2013-06-11 15:12:00,
2013-06-11 10:33:00,84.0,75.0,-100.00,NW,324,6.0,9.0,74,0.00,,,0.22,507.000000,,2013-06-11 15:33:00,
2013-06-11 10:43:00,84.0,75.0,-100.00,NW,324,6.0,9.0,74,0.00,,,0.22,507.000000,,2013-06-11 15:43:00,
2013-06-11 10:53:00,84.0,75.0,-100.00,NW,324,6.0,9.0,74,0.00,,,0.22,507.000000,,2013-06-11 15:53:00,
2013-06-11 11:03:00,84.0,75.0,-100.00,NW,324,6.0,9.0,74,0.00,,,0.22,507.000000,,2013-06-11 16:03:00,
2013-06-11 11:12:00,84.0,75.0,-100.00,NW,324,6.0,9.0,74,0.00,,,0.22,507.000000,,2013-06-11 16:12:00,
2013-06-11 11:33:00,88.0,74.0,-100.00,NW,314,3.0,12.0,63,0.00,,,0.16,767.000000,,2013-06-11 16:33:00,
2013-06-11 11:42:00,88.0,74.0,-100.00,NW,314,3.0,12.0,63,0.00,,,0.16,767.000000,,2013-06-11 16:42:00,
2013-06-11 11:52:00,88.0,74.0,-100.00,NW,314,3.0,12.0,63,0.00,,,0.16,767.000000,,2013-06-11 16:52:00,
2013-06-11 12:02:00,88.0,74.0,-100.00,NW,314,3.0,12.0,63,0.00,,,0.16,767.000000,,2013-06-11 17:02:00,
2013-06-11 12:12:00,88.0,74.0,-100.00,NW,314,3.0,12.0,63,0.00,,,0.16,767.000000,,2013-06-11 17:12:00,
2013-06-11 12:32:00,91.0,71.0,-100.00,WNW,287,3.0,9.0,53,0.00,,,0.05,957.000000,,2013-06-11 17:32:00,
2013-06-11 12:43:00,91.0,71.0,-100.00,WNW,287,3.0,9.0,53,0.00,,,0.05,957.000000,,2013-06-11 17:43:00,
2013-06-11 12:52:00,91.0,71.0,-100.00,WNW,287,3.0,9.0,53,0.00,,,0.05,957.000000,,2013-06-11 17:52:00,
2013-06-11 13:02:00,91.0,71.0,-100.00,WNW,287,3.0,9.0,53,0.00,,,0.05,957.000000,,2013-06-11 18:02:00,
2013-06-11 13:12:00,91.0,71.0,-100.00,WNW,287,3.0,9.0,53,0.00,,,0.05,957.000000,,2013-06-11 18:12:00,
2013-06-11 13:33:00,92.0,72.0,-100.00,South,185,1.0,8.0,52,0.00,,,0.00,877.000000,,2013-06-11 18:33:00,
2013-06-11 13:43:00,92.0,72.0,-100.00,South,185,1.0,8.0,52,0.00,,,0.00,877.000000,,2013-06-11 18:43:00,
2013-06-11 13:52:00,92.0,72.0,-100.00,South,185,1.0,8.0,52,0.00,,,0.00,877.000000,,2013-06-11 18:52:00,
2013-06-11 14:02:00,92.0,72.0,-100.00,South,185,1.0,8.0,52,0.00,,,0.00,877.000000,,2013-06-11 19:02:00,
2013-06-11 14:12:00,92.0,72.0,-100.00,South,185,1.0,8.0,52,0.00,,,0.00,877.000000,,2013-06-11 19:12:00,
2013-06-11 14:33:00,93.0,68.0,-100.00,WNW,303,4.0,8.0,45,0.00,,,0.00,971.000000,,2013-06-11 19:33:00,
2013-06-11 14:42:00,93.0,68.0,-100.00,WNW,303,4.0,8.0,45,0.00,,,0.00,971.000000,,2013-06-11 19:42:00,
2013-06-11 14:53:00,93.0,68.0,-100.00,WNW,303,4.0,8.0,45,0.00,,,0.00,971.000000,,2013-06-11 19:53:00,
2013-06-11 15:03:00,93.0,68.0,-100.00,WNW,303,4.0,8.0,45,0.00,,,0.00,971.000000,,2013-06-11 20:03:00,
2013-06-11 15:12:00,93.0,68.0,-100.00,WNW,303,4.0,8.0,45,0.00,,,0.00,971.000000,,2013-06-11 20:12:00,
2013-06-11 15:42:00,94.0,68.0,-100.00,WNW,286,4.0,10.0,43,0.00,,,0.00,880.000000,,2013-06-11 20:42:00,
2013-06-11 15:52:00,94.0,68.0,-100.00,WNW,286,4.0,10.0,43,0.00,,,0.00,880.000000,,2013-06-11 20:52:00,
2013-06-11 16:02:00,94.0,68.0,-100.00,WNW,286,4.0,10.0,43,0.00,,,0.00,880.000000,,2013-06-11 21:02:00,
2013-06-11 16:12:00,94.0,68.0,-100.00,WNW,286,4.0,10.0,43,0.00,,,0.00,880.000000,,2013-06-11 21:12:00,
2013-06-11 16:42:00,95.0,69.0,-100.00,SW,220,3.0,9.0,43,0.00,,,0.00,732.000000,,2013-06-11 21:42:00,
2013-06-11 16:53:00,95.0,69.0,-100.00,SW,220,3.0,9.0,43,0.00,,,0.00,732.000000,,2013-06-11 21:53:00,
2013-06-11 17:03:00,95.0,69.0,-100.00,SW,220,3.0,9.0,43,0.00,,,0.00,732.000000,,2013-06-11 22:03:00,
2013-06-11 17:12:00,95.0,69.0,-100.00,SW,220,3.0,9.0,43,0.00,,,0.00,732.000000,,2013-06-11 22:12:00,
2013-06-11 17:42:00,94.0,70.0,-100.00,West,269,2.0,9.0,46,0.00,,,0.00,479.000000,,2013-06-11 22:42:00,
2013-06-11 17:52:00,94.0,70.0,-100.00,West,269,2.0,9.0,46,0.00,,,0.00,479.000000,,2013-06-11 22:52:00,
2013-06-11 18:02:00,94.0,70.0,-100.00,West,269,2.0,9.0,46,0.00,,,0.00,479.000000,,2013-06-11 23:02:00,
2013-06-11 18:12:00,94.0,70.0,-100.00,West,269,2.0,9.0,46,0.00,,,0.00,479.000000,,2013-06-11 23:12:00,
2013-06-11 18:42:00,92.0,68.0,-100.00,NW,316,3.0,7.0,45,0.00,,,0.00,246.000000,,2013-06-11 23:42:00,
2013-06-11 18:52:00,92.0,68.0,-100.00,NW,316,3.0,7.0,45,0.00,,,0.00,246.000000,,2013-06-11 23:52:00,
2013-06-11 19:02:00,92.0,68.0,-100.00,NW,316,3.0,7.0,45,0.00,,,0.00,246.000000,,2013-06-12 00:02:00,
2013-06-11 19:12:00,92.0,68.0,-100.00,NW,316,3.0,7.0,45,0.00,,,0.00,246.000000,,2013-06-12 00:12:00,
2013-06-11 20:32:00,81.0,75.0,-100.00,South,191,5.0,9.0,81,-99.99,,,0.00,8.000000,,2013-06-12 01:32:00,
2013-06-11 20:42:00,81.0,75.0,-100.00,South,191,5.0,9.0,81,-99.99,,,0.00,8.000000,,2013-06-12 01:42:00,
2013-06-11 20:52:00,81.0,75.0,-100.00,South,191,5.0,9.0,81,-99.99,,,0.00,8.000000,,2013-06-12 01:52:00,
2013-06-11 21:02:00,81.0,75.0,-100.00,South,191,5.0,9.0,81,-99.99,,,0.00,8.000000,,2013-06-12 02:02:00,
2013-06-11 21:12:00,81.0,75.0,-100.00,South,191,5.0,9.0,81,-99.99,,,0.00,8.000000,,2013-06-12 02:12:00,
2013-06-11 21:32:00,80.0,75.0,-100.00,SSW,201,3.0,11.0,84,0.00,,,0.00,0.000000,,2013-06-12 02:32:00,
2013-06-11 21:42:00,80.0,75.0,-100.00,SSW,201,3.0,11.0,84,0.00,,,0.00,0.000000,,2013-06-12 02:42:00,
2013-06-11 21:52:00,80.0,75.0,-100.00,SSW,201,3.0,11.0,84,0.00,,,0.00,0.000000,,2013-06-12 02:52:00,
2013-06-11 22:02:00,80.0,75.0,-100.00,SSW,201,3.0,11.0,84,0.00,,,0.00,0.000000,,2013-06-12 03:02:00,
2013-06-11 22:12:00,80.0,75.0,-100.00,SSW,201,3.0,11.0,84,0.00,,,0.00,0.000000,,2013-06-12 03:12:00,
2013-06-11 22:43:00,78.0,74.0,-100.00,SSW,192,2.0,6.0,88,0.00,,,0.00,0.000000,,2013-06-12 03:43:00,
2013-06-11 22:53:00,78.0,74.0,-100.00,SSW,192,2.0,6.0,88,0.00,,,0.00,0.000000,,2013-06-12 03:53:00,
2013-06-11 23:03:00,78.0,74.0,-100.00,SSW,192,2.0,6.0,88,0.00,,,0.00,0.000000,,2013-06-12 04:03:00,
2013-06-11 23:13:00,78.0,74.0,-100.00,SSW,192,2.0,6.0,88,0.00,,,0.00,0.000000,,2013-06-12 04:13:00,
2013-06-11 23:34:00,76.0,74.0,-100.00,SSW,208,2.0,6.0,92,0.00,,,0.00,0.000000,,2013-06-12 04:34:00,
2013-06-11 23:42:00,76.0,74.0,-100.00,SSW,208,2.0,6.0,92,0.00,,,0.00,0.000000,,2013-06-12 04:42:00,
2013-06-11 23:53:00,76.0,74.0,-100.00,SSW,208,2.0,6.0,92,0.00,,,0.00,0.000000,,2013-06-12 04:53:00,